Volver al catálogo

STARLINK-4186

ActivoComunicacionesVLEO
NORAD 52880·PAYLOAD·🇺🇸 United States

Lanzado Jun 17, 2022 desde Cape Canaveral Space Force Station

Loading…

Próximos Pases (próximas 24 horas)

TLE

ActualizadoSource: CelesTrak SupGP

Época: Sep 15, 2026, 02:36 UTC

1 52880C 22062BC  26258.10881944 -.00027890  00000+0 -82389-3 0  2581
2 52880  53.1578 228.6948 0001349  90.1625 183.6276 15.34409023    18

Sigue STARLINK-4186 en tiempo real con AllMySat

Download on the App Store